Skip Page Navigation
NASA JPL Caltech
NASA Logo - Jet Propulsion Laboratory + View the NASA Portal
+ Center for Near-Earth Object Studies
JPL Home Earth Solar System Stars & Galaxies Technology
JPL Solar System Dynamics
BODIES ORBITS EPHEMERIDES TOOLS PHYSICAL DATA DISCOVERY FAQ SITE MAP
JPL Small-Body Database Browser
Search: [ help ]  
118607 (2000 GG130)
Classification: Main-belt Asteroid          SPK-ID: 2118607
Ephemeris | Orbit Diagram | Orbital Elements | Mission Design | Physical Parameters | Discovery Circumstances ]

[ show orbit diagram ]
Orbital Elements at Epoch 2459200.5 (2020-Dec-17.0) TDB
Reference: JPL 16 (heliocentric ecliptic J2000)
 Element Value Uncertainty (1-sigma)   Units 
e .2090980489391151 4.2853e-08  
a 2.421796294103105 7.7363e-09 au
q 1.915403414078167 1.0297e-07 au
i 1.964965527150207 5.2038e-06 deg
node 193.8739874924594 9.6518e-05 deg
peri 144.7538595751467 9.6966e-05 deg
M 46.65205895602384 8.6883e-06 deg
tp 2459022.108910735734
(2020-Jun-21.60891074)
3.3049e-05 TDB
period 1376.590735162895
3.77
6.5962e-06
1.806e-08
d
yr
n .2615156348247545 1.2531e-09 deg/d
Q 2.928189174128045 9.354e-09 au
  Orbit Determination Parameters
   # obs. used (total)      590  
   data-arc span      7571 days (20.73 yr)  
   first obs. used      2000-03-29  
   last obs. used      2020-12-20  
   planetary ephem.      DE431  
   SB-pert. ephem.      SB431-N16  
   condition code      0  
   norm. resid. RMS      .53695  
   source      ORB  
   producer      Otto Matic  
   solution date      2021-Feb-24 09:20:12  

Additional Information
 Earth MOID = .905032 au 
 Jupiter MOID = 2.4679 au 
 T_jup = 3.482 
[ show covariance matrix ]

Ephemeris | Orbit Diagram | Orbital Elements | Mission Design | Physical Parameters | Discovery Circumstances ]

Physical Parameter Table
Parameter Symbol Value Units Sigma Reference Notes
absolute magnitude H 16.80   n/a E2021B55  

118607 (2000 GG130)          Discovered 2000-Apr-05 by Spacewatch at Kitt Peak
Reference: 20051116/Numbers.arcLast Updated: 2005-11-21

Alternate Designations
 2000 GG130 = 2001 QZ23 
Ephemeris | Orbit Diagram | Orbital Elements | Mission Design | Physical Parameters | Discovery Circumstances ]
ABOUT SSD CREDITS/AWARDS PRIVACY/COPYRIGHT GLOSSARY LINKS
FirstGov 2021-Apr-10 20:31 UT
(server date/time)  
NASA Home Page
Site Manager:   Ryan S. Park
Webmaster  Alan B. Chamberlin